This is the latest recevied weather packets stored in our database for station/object K5KVN. If no packets are shown the sender has not sent any weather packets the latest 10 day(s).
| Time | Temp. | Humidity | Pressure | Rain* | Wind** | Luminosity | Snow |
|---|---|---|---|---|---|---|---|
| 1788010879 | 23.89° C | 75% | 1021 hPa | 0 mm | - | - | - |
| 1788010218 | 22.78° C | 78% | 1021 hPa | 0 mm | - | - | - |
| 1788009679 | 21.67° C | 82% | 1021.1 hPa | 0 mm | - | - | - |
| 1788009078 | 20.56° C | 87% | 1021 hPa | 0 mm | - | - | - |
| 1788008417 | 19.44° C | 90% | 1020.9 hPa | 0 mm | - | - | - |
| 1788007818 | 18.89° C | 89% | 1020.9 hPa | 0 mm | - | - | - |
| 1788007216 | 18.33° C | 89% | 1020.7 hPa | 0 mm | - | - | - |
| 1788006676 | 18.33° C | 89% | 1020.6 hPa | 0 mm | - | - | - |
| 1788006077 | 18.33° C | 89% | 1020.6 hPa | 0 mm | - | - | - |
| 1788005418 | 18.33° C | 89% | 1020.5 hPa | 0 mm | - | - | - |
| 1788004815 | 18.33° C | 88% | 1020.6 hPa | 0 mm | - | - | - |
| 1788004215 | 18.33° C | 87% | 1020.6 hPa | 0 mm | - | - | - |
| 1788003615 | 18.33° C | 87% | 1020.3 hPa | 0 mm | - | - | - |
| 1788003015 | 18.33° C | 87% | 1020.3 hPa | 0 mm | - | - | - |
| 1788002414 | 18.33° C | 87% | 1020.3 hPa | 0 mm | - | - | - |
| 1788001813 | 18.33° C | 87% | 1020.2 hPa | 0 mm | - | - | - |
| 1788001214 | 18.33° C | 87% | 1020.1 hPa | 0 mm | - | - | - |
| 1788000614 | 18.33° C | 87% | 1020.3 hPa | 0 mm | - | - | - |
| 1788000014 | 18.33° C | 86% | 1020.3 hPa | 0 mm | - | - | - |
| 1787999474 | 18.33° C | 85% | 1020.3 hPa | 0 mm | - | - | - |
| 1787998874 | 18.33° C | 85% | 1020.3 hPa | 0 mm | - | - | - |
| 1787998214 | 18.89° C | 84% | 1020.2 hPa | 0 mm | - | - | - |
| 1787997613 | 18.89° C | 83% | 1020 hPa | 0 mm | - | - | - |
| 1787997014 | 18.89° C | 83% | 1019.9 hPa | 0 mm | - | - | - |
| 1787996412 | 18.89° C | 83% | 1020 hPa | 0 mm | - | - | - |
* Rain latest hour (hover to see other rain measurements)
** Current wind speed in m/s (hover to see current wind gust speed)